Flag for Philippines Weather past 2 weeks in Makati, Philippines

Now
88 °F

Scattered clouds.


Feels Like: 102 °F
Forecast: 78 / 88 °F
Wind: 12 mph from West

Location: National Airport

Current Time: Sep 23, 2014 at 12:36:50 PM

Latest Report: Sep 23, 2014 at 12:00 PM


Visibility: N/A

Pressure: 29.83 "Hg

Humidity: 75%

Dew point: 79 °F

Location of MakatiLocation

Historic Weather in Makati — Graph

°F

Makati temperature yesterday

Maximum temperature yesterday: 86 °F (at 11:00 AM)
Minimum temperature yesterday: 79 °F (at 2:00 AM)
Average temperature yesterday: 83 °F

Past Weeks' High & Low Weather Summary

 TemperatureHumidityPressure
High90 °F (Sep 8, 1:00 PM)100% (Sep 8, 8:00 PM)29.92 "Hg (Sep 8, 8:00 PM)
Low75 °F (Sep 11, 5:00 AM)55% (Sep 16, 2:00 PM)29.24 "Hg (Sep 14, 5:00 PM)
Average82 °F88%29.76 "Hg
* Reported Sep 8 11:00 AM — Sep 23 11:00 AM, Makati, Weather by CustomWeather, © 2014

Note: Actual official high and low records may vary slightly from our data, if they occured in-between our weather recording intervals... More about our weather records

Advertising

Makati weather history for previous 24 hours

 ConditionsComfort  
Time TempWeatherWind HumidityBarometerVisibility
11:00 AM
Sep 23
90 °FScattered clouds.10 mph71%29.86 "HgN/A
10:00 AM86 °FPassing clouds.7 mph79%29.86 "HgN/A
9:00 AM84 °FPassing clouds.3 mph84%29.86 "HgN/A
8:00 AM82 °FScattered clouds.3 mph94%29.86 "HgN/A
7:00 AM81 °FScattered clouds.No wind100%29.83 "Hg6 mi
6:00 AM79 °FPartly sunny.2 mph100%29.83 "Hg6 mi
5:00 AM79 °FPassing clouds.No wind100%29.80 "Hg6 mi
4:00 AM79 °FPassing clouds.No wind100%29.83 "HgN/A
3:00 AM79 °FPassing clouds.No wind100%29.83 "HgN/A
2:00 AM79 °FPassing clouds.No wind100%29.83 "HgN/A
1:00 AM81 °FPassing clouds.3 mph100%29.86 "HgN/A
12:00 AM81 °FPassing clouds.2 mph94%29.86 "HgN/A
11:00 PM
Sep 22
81 °FPassing clouds.5 mph100%29.86 "HgN/A
10:00 PM82 °FPassing clouds.3 mph94%29.86 "HgN/A
9:00 PM82 °FPassing clouds.9 mph94%29.86 "HgN/A
8:00 PM82 °FPassing clouds.10 mph94%29.83 "HgN/A
7:00 PM82 °FPassing clouds.12 mph94%29.83 "HgN/A
6:00 PM82 °FPartly cloudy.10 mph94%29.80 "HgN/A
5:00 PM84 °FBroken clouds.14 mph89%29.80 "HgN/A
4:00 PM84 °FBroken clouds.15 mph89%29.80 "HgN/A
3:00 PM86 °FMore clouds than sun.15 mph79%29.80 "HgN/A
2:00 PM86 °FMore clouds than sun.15 mph84%29.80 "HgN/A
1:00 PM86 °FBroken clouds.17 mph84%29.80 "HgN/A
12:00 PM86 °FBroken clouds.14 mph84%29.83 "HgN/A
Weather by CustomWeather, © 2014

See weather overviewHow to use our weather pages